PGT1548 LROP-LTFJ

Flight info

Callsign PGT1548
Flight time 0h 51m
Altitude 31000
Route IDARU DCT NONQE DCT MAXOV DCT MATEL L620 RIXEN
Aircraft A21N/M-SDE2E3FGHIRWXY/LB1

Departure

Time 2026-05-01 08:46
Airport Bucharest Henri Coandă International Airport (LROP)

Arrival

Time 2026-05-01 09:37
Airport Istanbul Sabiha Gökçen International Airport (LTFJ)
Time Latitude Longitude Altitude Speed Heading
2026-05-01 08:12 44.56900 26.09041 322 ft 0 kts 174°
2026-05-01 08:39 44.56896 26.09042 326 ft 2 kts 174°
2026-05-01 08:39 44.56878 26.09044 325 ft 4 kts 174°
2026-05-01 08:39 44.56848 26.09039 326 ft 5 kts 218°
2026-05-01 08:40 44.56833 26.08905 326 ft 9 kts 265°
2026-05-01 08:40 44.56826 26.08812 326 ft 11 kts 264°
2026-05-01 08:40 44.56818 26.08702 326 ft 12 kts 264°
2026-05-01 08:41 44.56817 26.08637 326 ft 6 kts 274°
2026-05-01 08:41 44.56820 26.08595 324 ft 7 kts 276°
2026-05-01 08:41 44.56861 26.08554 326 ft 9 kts 353°
2026-05-01 08:41 44.56928 26.08547 326 ft 11 kts 356°
2026-05-01 08:42 44.57008 26.08536 326 ft 12 kts 354°
2026-05-01 08:42 44.57098 26.08524 324 ft 14 kts 354°
2026-05-01 08:42 44.57199 26.08509 326 ft 15 kts 354°
2026-05-01 08:42 44.57310 26.08493 326 ft 17 kts 354°
2026-05-01 08:43 44.57411 26.08479 326 ft 13 kts 354°
2026-05-01 08:43 44.57508 26.08466 326 ft 15 kts 354°
2026-05-01 08:43 44.57592 26.08453 327 ft 8 kts 354°
2026-05-01 08:43 44.57654 26.08446 327 ft 10 kts 10°
2026-05-01 08:44 44.57673 26.08530 329 ft 8 kts 90°
2026-05-01 08:44 44.57674 26.08565 329 ft 0 kts 84°
2026-05-01 08:45 44.57680 26.08649 328 ft 34 kts 84°
2026-05-01 08:45 44.57731 26.09313 324 ft 100 kts 83°
2026-05-01 08:45 44.57824 26.10532 327 ft 149 kts 84°
2026-05-01 08:46 44.57936 26.12109 590 ft 166 kts 81°
2026-05-01 08:46 44.58015 26.13711 1227 ft 166 kts 83°
2026-05-01 08:46 44.58118 26.15347 1719 ft 177 kts 80°
2026-05-01 08:46 44.58250 26.17155 2210 ft 196 kts 81°
2026-05-01 08:47 44.58400 26.19148 2709 ft 218 kts 81°
2026-05-01 08:47 44.58537 26.21394 3194 ft 241 kts 83°
2026-05-01 08:47 44.58651 26.23799 3974 ft 250 kts 83°
2026-05-01 08:47 44.58772 26.26255 4846 ft 255 kts 83°
2026-05-01 08:48 44.58849 26.28773 5644 ft 265 kts 91°
2026-05-01 08:48 44.58325 26.31269 6533 ft 273 kts 117°
2026-05-01 08:48 44.57060 26.33272 7375 ft 279 kts 140°
2026-05-01 08:48 44.55475 26.34879 8245 ft 283 kts 143°
2026-05-01 08:49 44.53851 26.36464 9132 ft 286 kts 143°
2026-05-01 08:49 44.52282 26.38023 9991 ft 290 kts 142°
2026-05-01 08:49 44.50557 26.39766 10696 ft 302 kts 142°
2026-05-01 08:49 44.48802 26.41558 11045 ft 323 kts 142°
2026-05-01 08:50 44.46924 26.43482 11382 ft 344 kts 142°
2026-05-01 08:50 44.44963 26.45492 12020 ft 352 kts 141°
2026-05-01 08:50 44.42972 26.47533 12797 ft 357 kts 141°
2026-05-01 08:50 44.40962 26.49588 13600 ft 360 kts 142°
2026-05-01 08:51 44.38926 26.51669 14362 ft 365 kts 142°
2026-05-01 08:51 44.36891 26.53751 15034 ft 369 kts 142°
2026-05-01 08:51 44.34779 26.55907 15726 ft 373 kts 142°
2026-05-01 08:51 44.32693 26.58035 16371 ft 378 kts 142°
2026-05-01 08:52 44.30561 26.60208 17020 ft 383 kts 142°
2026-05-01 08:52 44.28394 26.62415 17673 ft 387 kts 142°
2026-05-01 08:52 44.26207 26.64643 18297 ft 392 kts 142°
2026-05-01 08:52 44.23993 26.66894 18868 ft 396 kts 142°
2026-05-01 08:53 44.21754 26.69167 19405 ft 400 kts 142°
2026-05-01 08:53 44.19492 26.71462 19944 ft 403 kts 142°
2026-05-01 08:53 44.17209 26.73776 20475 ft 407 kts 142°
2026-05-01 08:53 44.14910 26.76103 21000 ft 410 kts 142°
2026-05-01 08:54 44.12597 26.78443 21501 ft 413 kts 143°
2026-05-01 08:54 44.10259 26.80807 22033 ft 416 kts 143°
2026-05-01 08:54 44.07935 26.83156 22551 ft 419 kts 143°
2026-05-01 08:54 44.05563 26.85547 23069 ft 423 kts 143°
2026-05-01 08:55 44.03168 26.87961 23539 ft 427 kts 143°
2026-05-01 08:55 44.00749 26.90395 23994 ft 431 kts 143°
2026-05-01 08:55 43.98305 26.92853 24436 ft 434 kts 143°
2026-05-01 08:55 43.95844 26.95325 24872 ft 437 kts 143°
2026-05-01 08:56 43.93372 26.97805 25306 ft 440 kts 143°
2026-05-01 08:56 43.90885 27.00298 25741 ft 442 kts 144°
2026-05-01 08:56 43.88383 27.02804 26151 ft 445 kts 144°
2026-05-01 08:56 43.85865 27.05322 26553 ft 448 kts 144°
2026-05-01 08:57 43.83330 27.07857 26937 ft 451 kts 144°
2026-05-01 08:57 43.80775 27.10407 27300 ft 454 kts 144°
2026-05-01 08:57 43.78204 27.12972 27674 ft 457 kts 144°
2026-05-01 08:57 43.75611 27.15555 28056 ft 459 kts 144°
2026-05-01 08:58 43.73045 27.18109 28416 ft 462 kts 145°
2026-05-01 08:58 43.70431 27.20708 28781 ft 464 kts 145°
2026-05-01 08:58 43.67800 27.23318 29214 ft 464 kts 145°
2026-05-01 08:58 43.65172 27.25923 29679 ft 464 kts 145°
2026-05-01 08:59 43.62544 27.28528 30030 ft 465 kts 145°
2026-05-01 08:59 43.59918 27.31128 30333 ft 464 kts 146°
2026-05-01 08:59 43.57296 27.33720 30563 ft 463 kts 146°
2026-05-01 08:59 43.54686 27.36297 30804 ft 461 kts 146°
2026-05-01 09:00 43.52074 27.38871 31052 ft 460 kts 146°
2026-05-01 09:00 43.49468 27.41437 31284 ft 459 kts 146°
2026-05-01 09:00 43.44298 27.46524 31332 ft 455 kts 147°
2026-05-01 09:01 43.39186 27.51541 31296 ft 453 kts 147°
2026-05-01 09:01 43.34050 27.56570 31292 ft 454 kts 147°
2026-05-01 09:02 43.28907 27.61595 31291 ft 454 kts 147°
2026-05-01 09:02 43.23760 27.66616 31287 ft 453 kts 148°
2026-05-01 09:03 43.18618 27.71622 31286 ft 452 kts 148°
2026-05-01 09:03 43.13528 27.76567 31290 ft 451 kts 148°
2026-05-01 09:04 43.08409 27.81527 31289 ft 450 kts 148°
2026-05-01 09:04 43.03306 27.86465 31275 ft 449 kts 148°
2026-05-01 09:05 42.98216 27.91378 31289 ft 446 kts 148°
2026-05-01 09:05 42.93155 27.96251 31289 ft 444 kts 148°
2026-05-01 09:06 42.88063 28.01142 31296 ft 452 kts 148°
2026-05-01 09:06 42.82917 28.06082 31287 ft 451 kts 149°
2026-05-01 09:07 42.77828 28.10952 31280 ft 447 kts 149°
2026-05-01 09:07 42.75310 28.13363 31009 ft 439 kts 149°
2026-05-01 09:07 42.72822 28.15740 30760 ft 436 kts 149°
2026-05-01 09:08 42.70349 28.18100 30513 ft 433 kts 149°
2026-05-01 09:08 42.67885 28.20446 30250 ft 431 kts 149°
2026-05-01 09:08 42.65431 28.22780 29957 ft 430 kts 149°
2026-05-01 09:08 42.63000 28.25093 29669 ft 424 kts 150°
2026-05-01 09:09 42.60587 28.27386 29378 ft 421 kts 150°
2026-05-01 09:09 42.58191 28.29659 29093 ft 419 kts 150°
2026-05-01 09:09 42.55800 28.31926 28814 ft 418 kts 150°
2026-05-01 09:09 42.53423 28.34178 28529 ft 416 kts 150°
2026-05-01 09:10 42.51050 28.36424 28255 ft 414 kts 150°
2026-05-01 09:10 42.48695 28.38650 27969 ft 413 kts 150°
2026-05-01 09:10 42.46344 28.40872 27700 ft 411 kts 150°
2026-05-01 09:10 42.44006 28.43080 27417 ft 407 kts 151°
2026-05-01 09:11 42.41689 28.45265 27153 ft 405 kts 151°
2026-05-01 09:11 42.39408 28.47414 26887 ft 403 kts 151°
2026-05-01 09:11 42.37083 28.49602 26624 ft 402 kts 151°
2026-05-01 09:11 42.34817 28.51734 26374 ft 401 kts 151°
2026-05-01 09:12 42.32531 28.53881 26123 ft 399 kts 151°
2026-05-01 09:12 42.30252 28.56020 25861 ft 398 kts 151°
2026-05-01 09:12 42.27979 28.58151 25608 ft 397 kts 151°
2026-05-01 09:12 42.25711 28.60276 25359 ft 396 kts 151°
2026-05-01 09:13 42.23451 28.62392 25100 ft 395 kts 150°
2026-05-01 09:13 42.21188 28.64510 24855 ft 395 kts 150°
2026-05-01 09:13 42.18935 28.66614 24609 ft 394 kts 151°
2026-05-01 09:13 42.16708 28.68692 24375 ft 392 kts 151°
2026-05-01 09:14 42.14466 28.70783 24124 ft 391 kts 151°
2026-05-01 09:14 42.12231 28.72868 23756 ft 388 kts 151°
2026-05-01 09:14 42.10014 28.74922 23257 ft 385 kts 152°
2026-05-01 09:14 42.07668 28.76549 22761 ft 373 kts 166°
2026-05-01 09:15 42.05187 28.77319 22270 ft 363 kts 177°
2026-05-01 09:15 42.02690 28.77780 21784 ft 360 kts 178°
2026-05-01 09:15 42.00214 28.78209 21304 ft 358 kts 178°
2026-05-01 09:15 41.97755 28.78654 20843 ft 355 kts 177°
2026-05-01 09:16 41.95311 28.79110 20407 ft 352 kts 177°
2026-05-01 09:16 41.92892 28.79569 19976 ft 350 kts 177°
2026-05-01 09:16 41.90481 28.80030 19572 ft 348 kts 177°
2026-05-01 09:17 41.85715 28.80945 18815 ft 345 kts 176°
2026-05-01 09:17 41.83368 28.81396 18427 ft 344 kts 177°
2026-05-01 09:17 41.78628 28.82305 17586 ft 343 kts 176°
2026-05-01 09:18 41.76266 28.82757 17197 ft 342 kts 176°
2026-05-01 09:18 41.71562 28.83658 16424 ft 340 kts 175°
2026-05-01 09:19 41.66884 28.84553 15720 ft 338 kts 175°
2026-05-01 09:19 41.64564 28.84997 15382 ft 336 kts 175°
2026-05-01 09:19 41.62251 28.85438 15036 ft 335 kts 176°
2026-05-01 09:20 41.57645 28.86315 14291 ft 334 kts 176°
2026-05-01 09:20 41.53059 28.87189 13535 ft 330 kts 175°
2026-05-01 09:21 41.48565 28.88043 12752 ft 327 kts 175°
2026-05-01 09:21 41.46314 28.88469 12371 ft 326 kts 175°
2026-05-01 09:21 41.41845 28.89315 11681 ft 323 kts 173°
2026-05-01 09:22 41.37412 28.90157 11028 ft 319 kts 174°
2026-05-01 09:22 41.33075 28.90977 10552 ft 308 kts 173°
2026-05-01 09:23 41.30985 28.91372 10394 ft 299 kts 173°
2026-05-01 09:23 41.26999 28.92125 9952 ft 287 kts 172°
2026-05-01 09:24 41.23052 28.92874 9249 ft 283 kts 171°
2026-05-01 09:24 41.21102 28.93240 8893 ft 282 kts 171°
2026-05-01 09:24 41.17220 28.93961 8172 ft 281 kts 168°
2026-05-01 09:25 41.13350 28.94689 7444 ft 280 kts 169°
2026-05-01 09:25 41.09519 28.95406 6755 ft 275 kts 168°
2026-05-01 09:26 41.07627 28.95761 6398 ft 275 kts 168°
2026-05-01 09:26 41.03879 28.96463 5630 ft 272 kts 169°
2026-05-01 09:26 41.02028 28.96809 5431 ft 265 kts 169°
2026-05-01 09:27 40.98499 28.97467 5057 ft 249 kts 168°
2026-05-01 09:27 40.97341 28.97684 4979 ft 249 kts 169°
2026-05-01 09:27 40.95653 28.98000 4968 ft 249 kts 169°
2026-05-01 09:28 40.93940 28.98321 4979 ft 249 kts 169°
2026-05-01 09:28 40.92225 28.98641 4990 ft 249 kts 169°
2026-05-01 09:28 40.90535 28.98955 4989 ft 240 kts 169°
2026-05-01 09:28 40.88907 28.99258 4785 ft 234 kts 168°
2026-05-01 09:29 40.85679 28.99856 4045 ft 231 kts 168°
2026-05-01 09:29 40.84147 29.00135 3986 ft 210 kts 168°
2026-05-01 09:30 40.81411 29.00643 3983 ft 184 kts 167°
2026-05-01 09:30 40.80166 29.00945 3977 ft 180 kts 159°
2026-05-01 09:30 40.77869 29.02034 3733 ft 165 kts 134°
2026-05-01 09:31 40.77244 29.03209 3314 ft 153 kts 101°
2026-05-01 09:31 40.77196 29.04559 3024 ft 147 kts 73°
2026-05-01 09:31 40.78407 29.06584 2979 ft 143 kts 35°
2026-05-01 09:32 40.79192 29.07391 2984 ft 143 kts 40°
2026-05-01 09:32 40.80496 29.09370 2994 ft 145 kts 52°
2026-05-01 09:32 40.81046 29.10492 2997 ft 145 kts 56°
2026-05-01 09:33 40.81551 29.11650 2997 ft 145 kts 57°
2026-05-01 09:33 40.82030 29.12822 2996 ft 145 kts 58°
2026-05-01 09:33 40.82936 29.15195 2858 ft 144 kts 61°
2026-05-01 09:34 40.83376 29.16387 2678 ft 145 kts 60°
2026-05-01 09:34 40.83819 29.17587 2493 ft 145 kts 60°
2026-05-01 09:34 40.84695 29.19967 2142 ft 143 kts 60°
2026-05-01 09:35 40.85124 29.21133 1918 ft 134 kts 59°
2026-05-01 09:35 40.85897 29.23235 1517 ft 125 kts 59°
2026-05-01 09:35 40.86275 29.24259 1354 ft 126 kts 60°
2026-05-01 09:36 40.86658 29.25301 1179 ft 127 kts 61°
2026-05-01 09:36 40.87051 29.26357 985 ft 127 kts 60°
2026-05-01 09:36 40.87433 29.27395 818 ft 126 kts 62°
2026-05-01 09:36 40.87813 29.28443 687 ft 126 kts 61°
2026-05-01 09:37 40.88191 29.29481 480 ft 125 kts 58°
2026-05-01 09:37 40.88939 29.31474 312 ft 97 kts 63°
2026-05-01 09:37 40.89156 29.32075 311 ft 48 kts 64°
2026-05-01 09:38 40.89343 29.32407 311 ft 11 kts 36°
2026-05-01 09:38 40.89416 29.32474 312 ft 14 kts 34°
2026-05-01 09:38 40.89474 29.32521 312 ft 5 kts
2026-05-01 09:39 40.89497 29.32422 312 ft 9 kts 265°
2026-05-01 09:39 40.89537 29.32355 312 ft 11 kts 339°
2026-05-01 09:39 40.89616 29.32328 312 ft 13 kts 341°
2026-05-01 09:40 40.89701 29.32277 311 ft 14 kts 334°
2026-05-01 09:40 40.89911 29.32141 318 ft 19 kts 334°
2026-05-01 09:40 40.89983 29.32096 321 ft 12 kts 335°
2026-05-01 09:41 40.90053 29.32050 326 ft 10 kts 333°
2026-05-01 09:41 40.90146 29.32209 326 ft 14 kts 64°
2026-05-01 09:41 40.90189 29.32329 326 ft 15 kts 64°
2026-05-01 09:42 40.90239 29.32462 326 ft 17 kts 64°
2026-05-01 09:42 40.90277 29.32563 326 ft 11 kts 56°
2026-05-01 09:42 40.90437 29.32516 325 ft 14 kts 334°
2026-05-01 09:43 40.90590 29.32411 326 ft 9 kts 315°
2026-05-01 09:43 40.90630 29.32337 325 ft 11 kts 323°
2026-05-01 09:43 40.90703 29.32285 326 ft 9 kts 334°
2026-05-01 09:44 40.90696 29.32108 325 ft 13 kts 244°
2026-05-01 09:44 40.90654 29.31995 325 ft 15 kts 244°
2026-05-01 09:44 40.90619 29.31899 326 ft 11 kts 243°
2026-05-01 09:45 40.90590 29.31822 326 ft 6 kts 243°
2026-05-01 09:45 40.90587 29.31768 326 ft 2 kts 326°
2026-05-01 09:45 40.90606 29.31755 326 ft 4 kts 333°
2026-05-01 09:46 40.90629 29.31739 326 ft 3 kts 334°
2026-05-01 09:46 40.90636 29.31735 326 ft 0 kts 334°
2026-05-01 09:46 40.90640 29.31732 326 ft 0 kts 334°